Starlink 31796

operational
NORAD ID: 59646 Int'l Des: 2024-082 Owner: SPXS Country: US Constellation: starlink
LEOCIRCULAR

关于 Starlink 31796

正在加载描述...

实时位置

正在加载3D地球...

即将过境

高度历史

Altitude vs Time

uPlot chart will show altitude changes over time

两行轨道根数

1 59646U 24082R 25350.13341525 .00001066 00000-0 48242-4 0 9992
2 59646 43.0020 251.6463 0000856 260.1360 99.9395 15.27585866 92193
Epoch: Dec 16, 2025 • Age: 17 hours

当前状态

高度 484.8 km
速度 7.63 km/s
星下点 33.91°N, 102.95°W
发射日期 May 3, 2024
运行时间 1.6 years
类型 internet

技术详情

分类 Payload
质量 730.00 kg
干质量 700.00 kg
总质量 730.00 kg
长度 0.30 m
直径 4.10 m
跨度 29.00 m
形状 Box + pan
制造商 SPXS
平台类型 Starlink V2M
阶段状态 In Orbit
所有者/国家 SPXS/US

大型星座

Loading constellations...